DW4129 Weather Reports


time (UTC)temp
F
wind
direction
speed
knots
gust
knots
rain 1hr
in
rain 24hr
in
rain mn
in
humidity
%
barometer
mb
20260510164612 78 81 1.7 7.8 0.00 0.00 0.00 39 1015.5
20260510164055 78 82 3.5 7.8 0.00 0.00 0.00 40 1015.5
20260510163556 78 38 1.7 6.1 0.00 0.00 0.00 44 1015.5
20260510163104 78 309 2.6 5.2 0.00 0.00 0.00 42 1015.6
20260510162559 77 348 2.6 4.3 0.00 0.00 0.00 42 1015.7
20260510162057 77 167 0.0 3.5 0.00 0.00 0.00 42 1015.8
20260510161558 77 98 1.7 3.5 0.00 0.00 0.00 43 1015.9
20260510161056 78 79 1.7 12.2 0.00 0.00 0.00 43 1015.9
20260510160556 77 286 4.3 10.4 0.00 0.00 0.00 45 1015.9
20260510160057 77 78 1.7 8.7 0.00 0.00 0.00 47 1015.9
20260510155557 77 106 5.2 8.7 0.00 0.00 0.00 43 1015.8
20260510155056 77 79 2.6 6.1 0.00 0.00 0.00 48 1015.8
20260510154556 77 347 2.6 6.1 0.00 0.00 0.00 48 1016.0
20260510154055 76 104 1.7 9.6 0.00 0.00 0.00 47 1015.9
20260510153556 76 82 3.5 9.6 0.00 0.00 0.00 47 1016.0
20260510153057 76 108 1.7 7.0 0.00 0.00 0.00 45 1016.0
20260510152558 76 88 2.6 7.0 0.00 0.00 0.00 47 1016.0
20260510152057 75 135 1.7 4.3 0.00 0.00 0.00 48 1016.0
20260510151603 75 311 1.7 7.0 0.00 0.00 0.00 48 1016.0
20260510151056 75 62 1.7 7.0 0.00 0.00 0.00 48 1016.1
20260510150556 75 119 2.6 4.3 0.00 0.00 0.00 49 1016.1
20260510150103 75 96 0.9 7.0 0.00 0.00 0.00 47 1016.1
20260510145556 74 100 2.6 7.0 0.00 0.00 0.00 49 1016.0
20260510145056 74 236 0.9 3.5 0.00 0.00 0.00 49 1016.1
20260510144610 74 159 1.7 7.8 0.00 0.00 0.00 49 1016.1
20260510144124 74 211 0.9 7.8 0.00 0.00 0.00 54 1016.0
20260510143555 73 69 4.3 7.0 0.00 0.00 0.00 51 1016.0
20260510143058 73 63 1.7 6.1 0.00 0.00 0.00 54 1016.0
20260510142555 72 94 3.5 6.1 0.00 0.00 0.00 52 1016.1
20260510142056 73 323 1.7 3.5 0.00 0.00 0.00 53 1016.0
20260510141553 73 80 0.9 6.1 0.00 0.00 0.00 55 1016.0
20260510141056 72 57 1.7 6.1 0.00 0.00 0.00 60 1015.9
20260510140559 72 105 1.7 3.5 0.00 0.00 0.00 59 1016.0
20260510140053 71 57 0.9 3.5 0.00 0.00 0.00 57 1015.9
20260510135556 71 42 1.7 3.5 0.00 0.00 0.00 62 1016.0
20260510135056 71 293 0.9 3.5 0.00 0.00 0.00 63 1015.9
20260510134556 71 244 0.9 2.6 0.00 0.00 0.00 62 1015.9
20260510134055 71 79 1.7 2.6 0.00 0.00 0.00 63 1015.9
20260510133558 70 43 0.0 2.6 0.00 0.00 0.00 65 1015.9
20260510133101 69 170 0.9 2.6 0.00 0.00 0.00 66 1015.9
20260510132556 69 265 0.9 3.5 0.00 0.00 0.00 67 1015.9
20260510132056 68 35 0.9 3.5 0.00 0.00 0.00 68 1015.9
20260510131558 68 22 0.9 3.5 0.00 0.00 0.00 67 1015.9
20260510131055 68 304 0.9 1.7 0.00 0.00 0.00 68 1015.8
20260510130556 67 327 0.9 1.7 0.00 0.00 0.00 77 1015.8
20260510130056 67 0 0.0 2.6 0.00 0.00 0.00 77 1015.7
20260510125555 66 82 0.9 2.6 0.00 0.00 0.00 73 1015.6
20260510125056 66 9 0.9 2.6 0.00 0.00 0.00 73 1015.5
20260510124557 66 0 0.0 2.6 0.00 0.00 0.00 78 1015.6
20260510124056 66 126 0.9 3.5 0.00 0.00 0.00 81 1015.6
20260510123556 65 5 0.9 3.5 0.00 0.00 0.00 76 1015.5
20260510123057 65 352 0.9 2.6 0.00 0.00 0.00 79 1015.4
20260510122557 64 0 0.0 3.5 0.00 0.00 0.00 85 1015.3
20260510122056 63 333 0.9 3.5 0.00 0.00 0.00 89 1015.2
20260510121557 62 317 0.0 1.7 0.00 0.00 0.00 91 1015.2
20260510121056 62 196 0.0 1.7 0.00 0.00 0.00 92 1015.0
20260510120556 61 0 0.0 1.7 0.00 0.00 0.00 94 1015.0
20260510120059 60 0 0.0 1.7 0.00 0.00 0.00 94 1014.9
20260510115555 60 271 0.0 1.7 0.00 0.00 0.00 95 1014.8
20260510115056 59 0 0.0 1.7 0.00 0.00 0.00 95 1014.8
20260510114605 59 0 0.0 1.7 0.00 0.00 0.00 95 1014.8
20260510114056 58 0 0.0 1.7 0.00 0.00 0.00 95 1014.9
20260510113555 57 271 0.0 0.9 0.00 0.00 0.00 95 1014.7
20260510113058 57 271 0.0 1.7 0.00 0.00 0.00 95 1014.5
20260510112556 56 271 0.0 1.7 0.00 0.00 0.00 95 1014.4
20260510112056 56 0 0.0 1.7 0.00 0.00 0.00 95 1014.4
20260510111555 56 271 0.0 1.7 0.00 0.00 0.00 95 1014.2
20260510111059 56 0 0.0 0.9 0.00 0.00 0.00 95 1014.1
20260510110556 56 0 0.0 1.7 0.00 0.00 0.00 95 1014.0
20260510110056 56 0 0.0 1.7 0.00 0.00 0.00 95 1013.9
20260510105556 56 271 0.0 1.7 0.00 0.00 0.00 95 1013.8
20260510105100 56 0 0.0 0.0 0.00 0.00 0.00 95 1013.7
20260510104608 56 0 0.0 0.0 0.00 0.00 0.00 95 1013.6
20260510104058 56 0 0.0 0.0 0.00 0.00 0.00 95 1013.6
20260510103556 57 0 0.0 0.0 0.00 0.00 0.00 95 1013.6
20260510103100 56 0 0.0 0.0 0.00 0.00 0.00 95 1013.4
20260510102556 56 0 0.0 1.7 0.00 0.00 0.00 95 1013.4
20260510102055 56 0 0.0 1.7 0.00 0.00 0.00 95 1013.3
20260510101556 56 0 0.0 1.7 0.00 0.00 0.00 95 1013.3
20260510101056 56 0 0.0 1.7 0.00 0.00 0.00 95 1013.3
20260510100556 56 0 0.0 1.7 0.00 0.00 0.00 95 1013.3
20260510100058 56 0 0.0 1.7 0.00 0.00 0.00 95 1013.3
20260510095556 56 271 0.0 1.7 0.00 0.00 0.00 95 1013.2
20260510095055 56 0 0.0 1.7 0.00 0.00 0.00 95 1013.3
20260510094553 56 0 0.0 1.7 0.00 0.00 0.00 95 1013.1
20260510094059 56 0 0.0 0.0 0.00 0.00 0.00 95 1013.0
20260510093557 56 0 0.0 0.0 0.00 0.00 0.00 95 1013.1
20260510093057 56 0 0.0 0.0 0.00 0.00 0.00 94 1013.0
20260510092556 56 0 0.0 0.0 0.00 0.00 0.00 94 1012.9
20260510092058 56 0 0.0 0.0 0.00 0.00 0.00 94 1012.8
20260510091554 56 0 0.0 0.0 0.00 0.00 0.00 95 1012.8
20260510091055 56 0 0.0 1.7 0.00 0.00 0.00 94 1012.8
20260510090558 56 0 0.0 1.7 0.00 0.00 0.00 94 1012.7
20260510090059 56 0 0.0 1.7 0.00 0.00 0.00 94 1012.7
20260510085557 56 271 0.0 1.7 0.00 0.00 0.00 94 1012.6
20260510085057 56 271 0.0 1.7 0.00 0.00 0.00 94 1012.6
20260510084600 56 0 0.0 1.7 0.00 0.00 0.00 94 1012.7
20260510084056 56 0 0.0 1.7 0.00 0.00 0.00 94 1012.6
20260510083555 56 0 0.0 1.7 0.00 0.00 0.00 94 1012.5
20260510083102 57 0 0.0 1.7 0.00 0.00 0.00 94 1012.4
20260510082555 57 0 0.0 1.7 0.00 0.00 0.00 94 1012.5
20260510082056 57 271 0.0 1.7 0.00 0.00 0.00 94 1012.4
20260510081556 57 327 0.0 1.7 0.00 0.00 0.00 94 1012.4
20260510081051 56 327 0.0 1.7 0.00 0.00 0.00 94 1012.3
20260510080553 57 327 0.0 1.7 0.00 0.00 0.00 94 1012.2
20260510080059 57 327 0.0 0.0 0.00 0.00 0.00 94 1012.1
20260510075554 57 0 0.0 0.0 0.00 0.00 0.00 94 1012.1
20260510075058 57 0 0.0 1.7 0.00 0.00 0.00 94 1012.2
20260510074625 57 0 0.0 1.7 0.00 0.00 0.00 94 1012.2
20260510074054 57 327 0.0 1.7 0.00 0.00 0.00 94 1012.2
20260510073554 57 10 0.0 0.0 0.00 0.00 0.00 94 1012.1
20260510073056 57 0 0.0 0.0 0.00 0.00 0.00 94 1012.0
20260510072554 57 0 0.0 0.0 0.00 0.00 0.00 94 1011.9
20260510072053 57 0 0.0 1.7 0.00 0.00 0.00 94 1011.9
20260510071602 56 0 0.0 1.7 0.00 0.00 0.00 94 1012.0
20260510071056 56 10 0.0 1.7 0.00 0.00 0.00 94 1012.0
20260510070554 56 0 0.0 1.7 0.00 0.00 0.00 94 1012.0
20260510070058 57 0 0.0 1.7 0.00 0.00 0.00 94 1011.9
20260510065551 57 0 0.0 0.0 0.00 0.00 0.00 94 1012.0
20260510065054 57 0 0.0 1.7 0.00 0.00 0.00 94 1012.0
20260510064612 57 0 0.0 1.7 0.00 0.00 0.00 94 1012.1
20260510064053 57 0 0.0 1.7 0.00 0.00 0.00 94 1012.1
20260510063554 57 10 0.0 0.9 0.00 0.00 0.00 94 1012.0
20260510063102 57 0 0.0 2.6 0.00 0.00 0.00 94 1012.0
20260510062554 57 0 0.0 2.6 0.00 0.00 0.00 94 1012.0
20260510062054 57 290 0.9 2.6 0.00 0.00 0.00 94 1012.0
20260510061604 57 0 0.0 1.7 0.00 0.00 0.00 94 1012.0
20260510061054 57 0 0.0 1.7 0.00 0.00 0.00 94 1011.9
20260510060554 57 0 0.0 1.7 0.00 0.00 0.00 94 1012.0
20260510060059 57 0 0.0 0.9 0.00 0.00 0.00 94 1012.1
20260510055553 58 0 0.0 1.7 0.00 0.00 0.00 94 1012.1
20260510055054 57 0 0.0 1.7 0.00 0.00 0.00 94 1012.2
20260510054554 57 195 0.0 1.7 0.00 0.00 0.00 94 1012.4
20260510054052 57 195 0.0 1.7 0.00 0.00 0.00 94 1012.4
20260510053552 58 0 0.0 1.7 0.00 0.00 0.00 93 1012.5
20260510053053 57 0 0.0 1.7 0.00 0.00 0.00 93 1012.4
20260510052554 58 0 0.0 1.7 0.00 0.00 0.00 93 1012.5
20260510052051 58 0 0.0 1.7 0.00 0.00 0.00 93 1012.4
20260510051601 58 0 0.0 1.7 0.00 0.00 0.00 93 1012.4
20260510051051 58 215 0.0 1.7 0.00 0.00 0.00 93 1012.5
20260510050552 58 0 0.0 1.7 0.00 0.00 0.00 93 1012.5
20260510050114 58 0 0.0 1.7 0.00 0.00 0.00 93 1012.5
20260510045556 58 0 0.0 0.9 0.00 0.00 0.00 93 1012.7
20260510045056 58 0 0.0 0.9 0.00 0.00 0.00 93 1012.5
20260510044556 58 0 0.0 0.9 0.00 0.00 0.00 93 1012.5
20260510044056 58 0 0.0 1.7 0.00 0.00 0.00 93 1012.7
20260510043557 58 0 0.0 1.7 0.00 0.00 0.00 93 1012.5
20260510043102 59 0 0.0 1.7 0.00 0.00 0.00 93 1012.5
20260510042558 59 0 0.0 1.7 0.00 0.00 0.00 92 1012.5
20260510042056 59 215 0.0 1.7 0.00 0.00 0.00 92 1012.5
20260510041609 59 0 0.0 1.7 0.00 0.00 0.00 93 1012.4
20260510041057 59 0 0.0 1.7 0.00 0.00 0.00 92 1012.4
20260510040558 59 0 0.0 1.7 0.00 0.00 0.00 92 1012.5
20260510040056 59 215 0.0 1.7 0.00 0.00 0.00 92 1012.5
20260510035556 59 0 0.0 1.7 0.00 0.00 0.00 92 1012.4
20260510035056 59 0 0.0 1.7 0.00 0.00 0.00 92 1012.6
20260510034554 59 0 0.0 1.7 0.00 0.00 0.00 92 1012.5
20260510034056 59 215 0.0 1.7 0.00 0.00 0.00 92 1012.5
20260510033555 59 0 0.0 1.7 0.00 0.00 0.00 92 1012.5
20260510033056 59 0 0.0 1.7 0.00 0.00 0.00 92 1012.6
20260510032555 59 0 0.0 1.7 0.00 0.00 0.00 92 1012.5
20260510032100 59 215 0.0 1.7 0.00 0.00 0.00 92 1012.5
20260510031559 59 0 0.0 1.7 0.00 0.00 0.00 92 1012.4
20260510031057 59 0 0.0 1.7 0.00 0.00 0.00 92 1012.5
20260510030557 59 215 0.0 1.7 0.00 0.00 0.00 91 1012.5
20260510030058 60 0 0.0 1.7 0.00 0.00 0.00 91 1012.4
20260510025556 60 0 0.0 1.7 0.00 0.00 0.00 91 1012.4
20260510025059 60 0 0.0 1.7 0.00 0.00 0.00 91 1012.4
20260510024601 60 201 0.0 1.7 0.00 0.00 0.00 91 1012.3
20260510024056 60 201 0.0 1.7 0.00 0.00 0.00 91 1012.4
20260510023555 60 0 0.0 0.9 0.00 0.00 0.00 91 1012.4
20260510023054 60 0 0.0 1.7 0.00 0.00 0.00 91 1012.3
20260510022559 60 0 0.0 1.7 0.00 0.00 0.00 91 1012.4
20260510022056 60 0 0.0 1.7 0.00 0.00 0.00 91 1012.4
20260510021557 60 0 0.0 0.0 0.00 0.00 0.00 90 1012.4
20260510021059 60 0 0.0 0.0 0.00 0.00 0.00 90 1012.3
20260510020556 60 0 0.0 1.7 0.00 0.00 0.00 90 1012.3
20260510020057 60 0 0.0 1.7 0.00 0.00 0.00 90 1012.3
20260510015619 61 0 0.0 0.0 0.00 0.00 0.00 90 1012.2
20260510015058 61 0 0.0 0.0 0.00 0.00 0.00 89 1012.2
20260510014554 61 0 0.0 0.0 0.00 0.00 0.00 89 1012.1
20260510014056 61 0 0.0 1.7 0.00 0.00 0.00 89 1011.9
20260510013556 61 0 0.0 1.7 0.00 0.00 0.00 88 1011.8
20260510013105 62 0 0.0 1.7 0.00 0.00 0.00 88 1011.7
20260510012600 62 201 0.0 1.7 0.00 0.00 0.00 88 1011.7
20260510012056 62 0 0.0 1.7 0.00 0.00 0.00 88 1011.5
20260510011553 62 0 0.0 1.7 0.00 0.00 0.00 87 1011.5
20260510011056 62 191 0.0 1.7 0.00 0.00 0.00 87 1011.3
20260510010557 62 191 0.0 1.7 0.00 0.00 0.00 86 1011.2
20260510010104 63 0 0.0 1.7 0.00 0.00 0.00 86 1011.3
20260510005555 63 0 0.0 1.7 0.00 0.00 0.00 85 1011.2
20260510005056 63 0 0.0 1.7 0.00 0.00 0.00 84 1011.1
20260510004603 64 0 0.0 1.7 0.00 0.00 0.00 84 1011.1
20260510004056 64 0 0.0 1.7 0.00 0.00 0.00 83 1011.1
20260510003556 64 191 0.0 1.7 0.00 0.00 0.00 82 1011.1
20260510003057 65 191 0.0 1.7 0.00 0.00 0.00 81 1011.1
20260510002558 65 0 0.0 1.7 0.00 0.00 0.00 81 1011.1
20260510002055 65 246 0.0 1.7 0.00 0.00 0.00 81 1011.0
20260510001554 65 0 0.0 1.7 0.00 0.00 0.00 81 1011.0
20260510001059 65 248 0.0 1.7 0.00 0.00 0.00 80 1010.9
20260510000555 65 258 0.0 1.7 0.00 0.00 0.00 80 1010.9
20260510000108 66 240 0.9 1.7 0.00 0.00 0.00 79 1010.9
20260509235556 66 227 0.0 1.7 0.00 0.00 0.00 78 1010.8
20260509235057 66 232 0.0 1.7 0.00 0.00 0.00 77 1010.8
20260509234605 67 226 0.0 2.6 0.00 0.00 0.00 77 1010.5
20260509234100 68 0 0.0 2.6 0.00 0.00 0.00 74 1010.4
20260509233559 68 225 0.9 3.5 0.00 0.00 0.00 74 1010.4
20260509233056 68 205 0.9 3.5 0.00 0.00 0.00 74 1010.4
20260509232556 68 190 0.9 1.7 0.00 0.00 0.00 73 1010.3
20260509232055 68 229 0.0 2.6 0.00 0.00 0.00 73 1010.3
20260509231555 69 259 0.9 2.6 0.00 0.00 0.00 73 1010.3
20260509231055 69 224 0.0 2.6 0.00 0.00 0.00 71 1010.2
20260509230557 69 225 0.0 7.0 0.00 0.00 0.00 72 1010.2
20260509230104 70 187 1.7 7.0 0.00 0.00 0.00 70 1010.1
20260509225556 70 270 0.9 2.6 0.00 0.00 0.00 70 1010.1
20260509225055 70 283 0.0 2.6 0.00 0.00 0.00 69 1010.0
20260509224556 71 0 0.0 3.5 0.00 0.00 0.00 68 1010.0
20260509224100 71 219 0.9 5.2 0.00 0.00 0.00 67 1009.9
20260509223556 71 227 1.7 6.1 0.00 0.00 0.00 67 1009.9
20260509223056 71 244 2.6 6.1 0.00 0.00 0.00 67 1010.0
20260509222556 71 254 1.7 6.1 0.00 0.00 0.00 68 1010.0
20260509222055 71 224 2.6 6.1 0.00 0.00 0.00 68 1010.0
20260509221608 71 251 1.7 6.1 0.00 0.00 0.00 66 1010.1
20260509221055 72 288 2.6 6.1 0.00 0.00 0.00 65 1010.0
20260509220555 72 311 2.6 7.0 0.00 0.00 0.00 65 1010.0
20260509220105 72 328 1.7 7.0 0.00 0.00 0.00 65 1010.0
20260509215555 72 236 2.6 6.1 0.00 0.00 0.00 63 1010.0
20260509215056 73 221 0.9 9.6 0.00 0.00 0.00 65 1010.0
20260509214553 73 252 2.6 9.6 0.00 0.00 0.00 66 1009.8
20260509214056 72 259 5.2 8.7 0.00 0.00 0.00 63 1009.8
20260509213556 73 227 2.6 8.7 0.00 0.00 0.00 64 1009.9
20260509213057 73 309 1.7 9.6 0.00 0.00 0.00 66 1009.8
20260509212555 72 212 2.6 9.6 0.00 0.00 0.00 65 1010.0
20260509212059 72 237 3.5 9.6 0.00 0.00 0.00 66 1009.8
20260509211553 71 248 5.2 9.6 0.00 0.00 0.00 64 1009.8
20260509211056 72 288 4.3 7.8 0.00 0.00 0.00 64 1009.8
20260509210557 71 234 3.5 7.8 0.00 0.00 0.00 65 1009.6
20260509210100 71 260 3.5 7.8 0.00 0.00 0.00 65 1009.5
20260509205556 71 252 2.6 7.8 0.00 0.00 0.00 65 1009.7
20260509205057 71 231 4.3 7.8 0.00 0.00 0.00 66 1009.9
20260509204602 71 238 3.5 8.7 0.00 0.00 0.00 66 1010.0
20260509204056 71 248 3.5 8.7 0.00 0.00 0.00 66 1010.0
20260509203557 72 292 3.5 7.8 0.00 0.00 0.00 66 1009.7
20260509203058 72 253 1.7 5.2 0.00 0.00 0.00 65 1009.7
20260509202557 71 256 1.7 5.2 0.00 0.00 0.00 65 1010.0
20260509202058 70 320 2.6 7.0 0.00 0.00 0.00 71 1010.1
20260509201555 70 284 1.7 7.0 0.00 0.00 0.00 69 1010.1
20260509201056 70 260 2.6 7.0 0.00 0.00 0.00 67 1010.2
20260509200556 70 218 1.7 6.1 0.00 0.00 0.00 68 1010.1
20260509200108 70 286 1.7 7.0 0.00 0.00 0.00 70 1010.1
20260509195559 70 269 1.7 7.0 0.00 0.00 0.00 68 1010.2
20260509195058 70 260 3.5 7.0 0.00 0.00 0.00 68 1010.1
20260509194603 70 148 1.7 7.8 0.00 0.00 0.00 67 1010.3
20260509194056 70 250 1.7 8.7 0.00 0.00 0.00 70 1010.3
20260509193559 70 215 3.5 8.7 0.00 0.00 0.00 65 1010.2
20260509193119 70 184 0.9 11.3 0.00 0.00 0.00 67 1010.2
20260509192557 70 216 1.7 11.3 0.00 0.00 0.00 69 1010.3
20260509192059 70 236 5.2 11.3 0.00 0.00 0.00 65 1010.4
20260509191613 70 145 2.6 9.6 0.00 0.00 0.00 66 1010.3
20260509191057 70 256 1.7 9.6 0.00 0.00 0.00 65 1010.4
20260509190557 71 220 4.3 9.6 0.00 0.00 0.00 63 1010.2
20260509190112 71 223 2.6 8.7 0.00 0.00 0.00 64 1010.2
20260509185556 70 167 1.7 7.8 0.00 0.00 0.00 66 1010.2
20260509185056 70 320 2.6 7.0 0.00 0.00 0.00 66 1010.3
20260509184555 69 294 2.6 6.1 0.00 0.00 0.00 69 1010.5
20260509184056 69 233 1.7 6.1 0.00 0.00 0.00 68 1010.5
20260509183556 69 304 1.7 6.1 0.00 0.00 0.00 67 1010.6
20260509183102 69 253 3.5 6.1 0.00 0.00 0.00 66 1010.7
20260509182555 69 206 2.6 7.0 0.00 0.00 0.00 67 1010.6
20260509182055 69 287 1.7 7.0 0.00 0.00 0.00 68 1010.6
20260509181557 70 249 1.7 6.1 0.00 0.00 0.00 64 1010.5
20260509181057 70 233 3.5 7.0 0.00 0.00 0.00 63 1010.6
20260509180557 70 277 2.6 7.0 0.00 0.00 0.00 63 1010.7
20260509180057 70 189 2.6 9.6 0.00 0.00 0.00 64 1010.7
20260509175556 71 218 2.6 9.6 0.00 0.00 0.00 62 1010.8
20260509175056 71 240 2.6 8.7 0.00 0.00 0.00 62 1010.8
20260509174554 72 96 2.6 8.7 0.00 0.00 0.00 62 1010.9
20260509174057 71 262 3.5 8.7 0.00 0.00 0.00 61 1011.0
20260509173555 71 236 3.5 8.7 0.00 0.00 0.00 63 1010.9
20260509173101 69 244 2.6 6.1 0.00 0.00 0.00 65 1011.1
20260509172558 69 182 3.5 9.6 0.00 0.00 0.00 64 1011.3
20260509172056 70 235 2.6 9.6 0.00 0.00 0.00 62 1011.2
20260509171608 70 244 2.6 6.1 0.00 0.00 0.00 61 1011.3
20260509171055 71 111 2.6 11.3 0.00 0.00 0.00 60 1011.4
20260509170556 70 153 2.6 11.3 0.00 0.00 0.00 63 1011.5
20260509170054 70 270 3.5 11.3 0.00 0.00 0.00 60 1011.6
20260509165557 69 202 2.6 6.1 0.00 0.00 0.00 65 1011.6
20260509165056 68 260 2.6 8.7 0.00 0.00 0.00 63 1011.7